EW8459 Weather Reports


time (UTC)temp
C
wind
direction
speed
KPH
gust
KPH
rain 1hr
cm
rain 24hr
cm
rain mn
cm
humidity
%
barometer
mb
20260505031726 15 140 4.8 12.9 0.00 0.00 0.00 52 1008.0
20260505031005 15 187 4.8 12.9 0.00 0.00 0.00 51 1008.0
20260505030504 15 182 4.8 12.9 0.00 0.00 0.00 51 1008.0
20260505030226 16 158 4.8 9.7 0.00 0.00 0.00 51 1007.9
20260505025504 16 165 4.8 11.3 0.00 0.00 0.00 50 1007.9
20260505025006 16 158 4.8 14.5 0.00 0.00 0.00 50 1008.0
20260505024504 16 164 4.8 14.5 0.00 0.00 0.00 50 1008.1
20260505024225 16 156 4.8 11.3 0.00 0.00 0.00 49 1008.0
20260505023724 16 157 4.8 11.3 0.00 0.00 0.00 49 1008.0
20260505023005 16 136 3.2 9.7 0.00 0.00 0.00 49 1008.0
20260505022504 16 119 3.2 9.7 0.00 0.00 0.00 49 1008.0
20260505022005 16 155 4.8 11.3 0.00 0.00 0.00 48 1008.1
20260505021504 16 162 4.8 11.3 0.00 0.00 0.00 48 1008.0
20260505021007 16 178 4.8 8.0 0.00 0.00 0.00 48 1008.2
20260505020503 16 167 4.8 14.5 0.00 0.00 0.00 47 1008.1
20260505020007 16 159 4.8 14.5 0.00 0.00 0.00 47 1008.0
20260505015503 17 171 4.8 11.3 0.00 0.00 0.00 47 1008.0
20260505014956 17 163 4.8 9.7 0.00 0.00 0.00 47 1007.9
20260505014449 17 177 4.8 9.7 0.00 0.00 0.00 46 1007.9
20260505014206 17 184 4.8 11.3 0.00 0.00 0.00 46 1007.7
20260505013438 17 157 6.4 11.3 0.00 0.00 0.00 46 1007.6
20260505013155 17 194 4.8 11.3 0.00 0.00 0.00 45 1007.6
20260505012436 17 173 4.8 9.7 0.00 0.00 0.00 45 1007.5
20260505012423 17 163 6.4 17.7 0.00 0.00 0.00 44 1007.4
20260505011434 17 207 6.4 17.7 0.00 0.00 0.00 44 1007.3
20260505010934 18 186 4.8 12.9 0.00 0.00 0.00 44 1007.2
20260505010432 18 184 6.4 12.9 0.00 0.00 0.00 44 1007.0
20260505005932 18 240 6.4 20.9 0.00 0.00 0.00 43 1006.8
20260505005431 18 175 6.4 20.9 0.00 0.00 0.00 42 1006.8
20260505005154 18 191 4.8 12.9 0.00 0.00 0.00 42 1006.7
20260505004430 18 173 4.8 14.5 0.00 0.00 0.00 42 1006.6
20260505003931 18 173 6.4 14.5 0.00 0.00 0.00 41 1006.5
20260505003430 18 141 6.4 14.5 0.00 0.00 0.00 40 1006.3
20260505002930 19 207 8.0 14.5 0.00 0.00 0.00 39 1006.2
20260505002431 19 153 6.4 14.5 0.00 0.00 0.00 39 1005.9
20260505001930 18 200 3.2 11.3 0.00 0.00 0.00 38 1005.8
20260505001430 18 194 0.0 1.6 0.00 0.00 0.00 37 1005.6
20260505000930 19 49 0.0 0.0 0.00 0.00 0.00 36 1005.4
20260505000431 19 49 0.0 1.6 0.00 0.00 0.00 36 1005.3
20260504235926 19 49 0.0 3.2 0.00 0.00 0.00 36 1005.3
20260504235419 19 178 0.0 3.2 0.00 0.00 0.00 36 1005.2
20260504234914 20 127 0.0 3.2 0.00 0.00 0.00 36 1005.2
20260504234407 20 210 0.0 3.2 0.00 0.00 0.00 35 1005.1
20260504233908 20 113 0.0 1.6 0.00 0.00 0.00 34 1005.1
20260504233406 20 62 0.0 3.2 0.00 0.00 0.00 34 1005.0
20260504232905 20 19 0.0 3.2 0.00 0.00 0.00 33 1004.9
20260504232630 20 22 0.0 3.2 0.00 0.00 0.00 33 1005.0
20260504232354 20 93 0.0 3.2 0.00 0.00 0.00 33 1004.9
20260504231403 21 19 1.6 11.3 0.00 0.00 0.00 33 1004.8
20260504230907 21 237 3.2 11.3 0.00 0.00 0.00 32 1004.7
20260504230403 21 99 1.6 11.3 0.00 0.00 0.00 32 1004.6
20260504225903 21 204 1.6 6.4 0.00 0.00 0.00 32 1004.6
20260504225840 21 308 1.6 6.4 0.00 0.00 0.00 32 1004.5
20260504224904 21 218 1.6 6.4 0.00 0.00 0.00 31 1004.5
20260504224404 21 240 1.6 12.9 0.00 0.00 0.00 32 1004.5
20260504223903 21 219 3.2 12.9 0.00 0.00 0.00 31 1004.4
20260504223626 21 211 1.6 4.8 0.00 0.00 0.00 31 1004.4
20260504222904 21 136 1.6 16.1 0.00 0.00 0.00 30 1004.4
20260504222403 21 244 3.2 16.1 0.00 0.00 0.00 30 1004.4
20260504222122 21 221 3.2 9.7 0.00 0.00 0.00 30 1004.4
20260504221404 22 208 3.2 9.7 0.00 0.00 0.00 30 1004.3
20260504220903 22 311 1.6 12.9 0.00 0.00 0.00 29 1004.3
20260504220404 22 260 3.2 12.9 0.00 0.00 0.00 29 1004.4
20260504215904 22 302 3.2 14.5 0.00 0.00 0.00 30 1004.4
20260504215404 22 341 4.8 14.5 0.00 0.00 0.00 28 1004.3
20260504214903 22 238 4.8 11.3 0.00 0.00 0.00 28 1004.4
20260504214402 22 207 3.2 11.3 0.00 0.00 0.00 28 1004.3
20260504213901 22 321 3.2 11.3 0.00 0.00 0.00 28 1004.3
20260504213402 22 261 3.2 11.3 0.00 0.00 0.00 29 1004.3
20260504212901 22 349 1.6 6.4 0.00 0.00 0.00 29 1004.4
20260504212401 22 43 3.2 6.4 0.00 0.00 0.00 30 1004.3
20260504212126 22 324 3.2 11.3 0.00 0.00 0.00 29 1004.3
20260504211625 22 262 3.2 11.3 0.00 0.00 0.00 31 1004.3
20260504210902 22 219 3.2 8.0 0.00 0.00 0.00 30 1004.2
20260504210401 22 246 3.2 6.4 0.00 0.00 0.00 28 1004.3
20260504205902 22 9 3.2 12.9 0.00 0.00 0.00 29 1004.2
20260504205401 22 207 3.2 12.9 0.00 0.00 0.00 28 1004.3
20260504204902 22 0 4.8 11.3 0.00 0.00 0.00 28 1004.3
20260504204401 22 225 3.2 14.5 0.00 0.00 0.00 28 1004.4
20260504203902 22 131 1.6 14.5 0.00 0.00 0.00 28 1004.4
20260504203401 22 217 3.2 17.7 0.00 0.00 0.00 28 1004.3
20260504202902 22 355 4.8 17.7 0.00 0.00 0.00 27 1004.3
20260504202402 22 136 4.8 12.9 0.00 0.00 0.00 28 1004.3
20260504201902 22 208 3.2 9.7 0.00 0.00 0.00 28 1004.3
20260504201402 22 198 3.2 12.9 0.00 0.00 0.00 27 1004.3
20260504200902 22 327 3.2 12.9 0.00 0.00 0.00 29 1004.3
20260504200402 22 210 3.2 14.5 0.00 0.00 0.00 27 1004.3
20260504200123 22 327 4.8 19.3 0.00 0.00 0.00 27 1004.5
20260504195402 22 253 6.4 19.3 0.00 0.00 0.00 27 1004.5
20260504195351 22 182 4.8 19.3 0.00 0.00 0.00 26 1004.3
20260504194401 22 318 3.2 14.5 0.00 0.00 0.00 28 1004.4
20260504193901 22 223 4.8 12.9 0.00 0.00 0.00 27 1004.4
20260504193402 22 235 4.8 12.9 0.00 0.00 0.00 26 1004.4
20260504193127 22 150 4.8 14.5 0.00 0.00 0.00 26 1004.4
20260504192401 22 211 6.4 22.5 0.00 0.00 0.00 26 1004.5
20260504191902 22 231 6.4 22.5 0.00 0.00 0.00 26 1004.5
20260504191401 22 214 4.8 14.5 0.00 0.00 0.00 27 1004.4
20260504190902 22 342 4.8 14.5 0.00 0.00 0.00 27 1004.4
20260504190404 22 301 3.2 14.5 0.00 0.00 0.00 26 1004.4
20260504185903 22 235 4.8 14.5 0.00 0.00 0.00 26 1004.6
20260504185622 22 185 4.8 12.9 0.00 0.00 0.00 26 1004.6
20260504185121 22 224 4.8 12.9 0.00 0.00 0.00 27 1004.7
20260504184403 22 57 3.2 11.3 0.00 0.00 0.00 28 1004.9
20260504183901 22 157 4.8 16.1 0.00 0.00 0.00 27 1004.9
20260504183404 22 244 4.8 17.7 0.00 0.00 0.00 27 1004.9
20260504182903 22 105 4.8 17.7 0.00 0.00 0.00 28 1004.9
20260504182403 21 331 6.4 14.5 0.00 0.00 0.00 28 1005.0
20260504181902 21 193 6.4 14.5 0.00 0.00 0.00 27 1005.1
20260504181402 21 175 6.4 16.1 0.00 0.00 0.00 27 1005.0
20260504181127 21 198 8.0 16.1 0.00 0.00 0.00 27 1005.0
20260504180403 21 277 8.0 16.1 0.00 0.00 0.00 28 1004.8
20260504175901 21 215 6.4 16.1 0.00 0.00 0.00 27 1004.9
20260504175625 21 162 4.8 14.5 0.00 0.00 0.00 27 1004.9
20260504174902 21 256 6.4 16.1 0.00 0.00 0.00 28 1005.1
20260504174401 21 132 8.0 16.1 0.00 0.00 0.00 28 1004.9
20260504173902 21 196 6.4 17.7 0.00 0.00 0.00 28 1005.1
20260504173634 21 199 6.4 17.7 0.00 0.00 0.00 28 1005.2
20260504173124 21 209 6.4 14.5 0.00 0.00 0.00 28 1005.1
20260504172402 21 173 8.0 17.7 0.00 0.00 0.00 27 1005.2
20260504172125 21 109 8.0 20.9 0.00 0.00 0.00 27 1005.3
20260504171405 21 211 8.0 22.5 0.00 0.00 0.00 28 1005.1
20260504170902 21 171 6.4 22.5 0.00 0.00 0.00 30 1005.3
20260504170621 21 253 4.8 20.9 0.00 0.00 0.00 30 1005.3
20260504160402 20 221 6.4 20.9 0.00 0.00 0.00 32 1005.6
20260504150901 18 210 4.8 12.9 0.00 0.00 0.00 35 1006.3
20260504150401 18 261 3.2 12.9 0.00 0.00 0.00 36 1006.5
20260504140851 17 321 4.8 22.5 0.00 0.00 0.00 39 1007.2
20260504140119 17 185 4.8 22.5 0.00 0.00 0.00 40 1007.3
20260504130630 15 250 1.6 8.0 0.00 0.00 0.00 44 1007.8
20260504110402 8 96 0.0 0.0 0.00 0.00 0.00 61 1008.7
20260504100401 7 88 0.0 1.6 0.00 0.00 0.00 61 1008.6
20260504081901 6 213 0.0 0.0 0.00 0.00 0.00 60 1008.5
20260504081402 6 213 0.0 0.0 0.00 0.00 0.00 61 1008.6
20260504081122 6 213 0.0 1.6 0.00 0.00 0.00 60 1008.5
20260504081104 6 213 0.0 1.6 0.00 0.00 0.00 60 1008.5
20260504080121 6 213 0.0 1.6 0.00 0.00 0.00 59 1008.5
20260504050350 6 232 0.0 0.0 0.00 0.00 0.00 57 1008.3
20260504045554 6 234 0.0 0.0 0.00 0.00 0.00 57 1008.3
20260504045054 6 238 0.0 0.0 0.00 0.00 0.00 57 1008.3
20260504044554 6 238 0.0 0.0 0.00 0.00 0.00 56 1008.3
20260504044054 6 222 0.0 0.0 0.00 0.00 0.00 56 1008.3
20260504043554 6 224 0.0 0.0 0.00 0.00 0.00 55 1008.3
20260504043315 6 225 0.0 0.0 0.00 0.00 0.00 55 1008.3
20260504042554 6 225 0.0 0.0 0.00 0.00 0.00 55 1008.3
20260504042054 6 225 0.0 3.2 0.00 0.00 0.00 55 1008.3
20260504041554 6 232 0.0 3.2 0.00 0.00 0.00 55 1008.3
20260504041055 6 226 0.0 0.0 0.00 0.00 0.00 55 1008.2
20260504040553 6 225 0.0 0.0 0.00 0.00 0.00 54 1008.1
20260504040318 6 225 0.0 0.0 0.00 0.00 0.00 55 1008.1
20260504035551 6 225 0.0 3.2 0.00 0.00 0.00 54 1008.1
20260504035049 6 225 0.0 4.8 0.00 0.00 0.00 55 1008.1
20260504034548 6 217 0.0 1.6 0.00 0.00 0.00 55 1008.1
20260504034043 6 207 0.0 1.6 0.00 0.00 0.00 54 1008.0
20260504033537 6 206 0.0 3.2 0.00 0.00 0.00 54 1008.0
20260504033257 6 205 0.0 3.2 0.00 0.00 0.00 54 1008.0
20260504032531 6 209 1.6 3.2 0.00 0.00 0.00 54 1008.0
20260504032030 6 235 0.0 3.2 0.00 0.00 0.00 54 1008.1